Location: ?????
(32.9947°N, 35.6314°E)
Time: 05:44:22
(UTC+00:00)

Daily predictions for brighter satellites

Satellite Brightness Start Highest point End
(mag) Time Altitude Azimuth Time Altitude Azimuth Time Altitude Azimuth
IRS-1C 4.1 00:01:32 10° NNE 00:06:53 79° ESE 00:08:00 57° S
IRS-1D 3.6 00:02:59 10° N 00:08:14 61° WNW 00:08:41 59° W
Cosmos-2242 3.1 00:04:21 10° N 00:08:00 63° NNW 00:08:00 63° NNW
Cosmos 2219 3.4 00:06:31 10° NNW 00:11:37 49° W 00:11:37 49° W
Alouette 2 Rocket 4.0 00:07:10 10° NNW 00:11:33 51° WNW 00:11:33 51° WNW
SL-16 R/B 3.0 00:13:22 39° W 00:13:22 39° W 00:18:59 10° NNW
Cosmos 2184 Rocket 3.9 00:16:29 41° S 00:18:49 90° SW 00:25:01 10° N
GP-B 4.1 00:18:27 10° NNW 00:21:53 33° WNW 00:21:53 33° WNW
Cosmos 2297 Rocket 2.3 00:18:57 10° NNW 00:24:21 49° WSW 00:24:53 47° WSW
Lacrosse 4 Rocket 2.9 00:23:56 10° N 00:27:54 36° ENE 00:31:46 10° SE
Cosmos 2278 3.9 00:27:57 44° WSW 00:29:22 56° WNW 00:34:56 10° N
STARLINK-1301 4.3 00:29:59 34° ESE 00:29:59 34° ESE 00:33:00 10° ENE
Cosmos 2082 3.6 00:24:14 10° NNW 00:29:53 85° ENE 00:35:30 10° SSE
STARLINK-42 3.6 00:31:36 49° E 00:31:36 49° E 00:34:19 10° NE
STARLINK-1307 4.4 00:32:35 32° SE 00:32:37 32° SE 00:35:44 10° ENE
Meteor 1-28 Rocket 3.8 00:32:33 23° SE 00:34:38 54° ENE 00:38:19 10° N
ARIANE 5 R/B 2.4 00:29:43 10° N 00:34:44 75° WNW 00:36:24 42° SSW
Cosmos 2322 Rocket 3.9 00:30:14 10° SSE 00:34:49 26° ESE 00:39:26 10° NE
STARLINK-1290 4.2 00:35:03 34° SE 00:35:09 34° SE 00:38:17 10° ENE
Cosmos 1610 Rocket 4.5 00:32:16 26° S 00:35:52 82° E 00:42:01 10° N
H-2A R/B 3.2 00:32:15 10° SE 00:36:17 43° ENE 00:40:25 10° N
STARLINK-1316 4.1 00:36:36 34° ESE 00:36:36 34° ESE 00:39:15 10° ENE
STARLINK-1257 4.0 00:37:29 35° ESE 00:37:29 35° ESE 00:40:11 10° ENE
Cosmos 2181 Rocket 4.4 00:31:34 10° NNW 00:37:38 45° W 00:39:47 34° SW
STARLINK-1297 4.1 00:37:33 36° SE 00:37:44 36° SE 00:40:56 10° ENE
Cosmos 1455 4.5 00:35:17 10° NW 00:35:59 13° NW 00:35:59 13° NW
STARLINK-1256 3.9 00:38:20 36° ESE 00:38:20 36° ESE 00:41:06 10° ENE
STARLINK-1311 3.7 00:39:05 41° ESE 00:39:05 41° ESE 00:41:37 10° ENE
STARLINK-1213 3.9 00:39:13 37° ESE 00:39:13 37° ESE 00:42:01 10° ENE
ADEOS II 2.7 00:34:15 10° N 00:39:08 40° WNW 00:40:26 34° WSW
STARLINK-1263 3.8 00:40:04 38° SE 00:40:04 38° SE 00:42:54 10° ENE
STARLINK-1211 4.3 00:36:05 10° NW 00:40:08 55° NE 00:44:12 10° ESE
STARLINK-1259 3.7 00:40:58 39° SE 00:40:58 39° SE 00:43:51 10° ENE
Cosmos 1898 Rocket 3.9 00:36:17 10° NNW 00:41:14 40° W 00:42:02 38° WSW
STARLINK-1265 3.7 00:41:18 40° SE 00:41:18 40° SE 00:44:15 10° ENE
STARLINK-26 2.9 00:41:08 79° WSW 00:41:18 85° NW 00:44:45 10° NE
STARLINK-1285 3.7 00:41:48 41° SE 00:41:48 41° SE 00:44:44 10° ENE
STARLINK-1268 3.5 00:43:33 43° SE 00:43:34 43° SE 00:46:32 10° ENE
STARLINK-1296 3.5 00:43:33 43° SE 00:43:35 43° SE 00:46:34 10° ENE
Meteor 2-17 Rocket 4.4 00:40:56 29° SSW 00:44:16 77° W 00:50:26 10° N
Cosmos 1892 3.9 00:42:00 19° SSE 00:44:20 40° E 00:47:55 10° NNE
STARLINK-1260 3.5 00:44:25 44° SE 00:44:30 44° SE 00:47:29 10° ENE
Spot 4 Rocket 3.9 00:39:34 10° NNE 00:44:43 85° WNW 00:47:17 30° SSW
STARLINK-1245 4.1 00:41:01 10° NW 00:45:07 62° NE 00:49:13 10° SE
STARLINK-1318 3.4 00:45:17 45° SE 00:45:24 46° SE 00:48:23 10° NE
STARLINK-62 4.3 00:45:15 28° SE 00:45:35 29° SE 00:48:23 10° ENE
STARLINK-1275 3.4 00:46:08 46° SE 00:46:16 47° SE 00:49:16 10° NE
CZ-2D R/B 4.1 00:44:33 10° NW 00:46:24 12° WNW 00:47:17 11° WNW
STARLINK-1309 3.3 00:47:01 48° SE 00:47:11 48° SE 00:50:12 10° NE
STARLINK-34 4.2 00:47:04 29° SE 00:47:27 30° SE 00:50:18 10° ENE
STARLINK-1282 3.3 00:47:52 49° SSE 00:48:04 50° SE 00:51:05 10° NE
STARLINK-55 2.8 00:47:54 68° WNW 00:48:05 71° NW 00:51:16 10° NE
Cosmos 1937 Rocket 3.7 00:43:22 10° NNW 00:48:26 50° WSW 00:50:53 28° SSW
STARLINK-1313 2.9 00:48:57 61° SSE 00:49:09 63° SE 00:52:14 10° NE
Resurs 1-4 Rocket 4.2 00:48:05 10° NW 00:49:26 11° WNW 00:50:27 10° WNW
STARLINK-1279 2.9 00:49:51 62° SSE 00:50:05 65° SE 00:53:10 10° NE
STARLINK-1233 3.9 00:45:59 10° NW 00:50:06 70° NE 00:54:13 10° SE
STARLINK-1298 3.1 00:50:29 51° SSE 00:50:46 54° SE 00:53:49 10° NE
Cosmos 2154 Rocket 3.9 00:47:05 24° SSW 00:51:09 78° W 00:57:26 10° N
SJ 16-02 3.1 00:48:14 10° NW 00:50:03 17° WNW 00:50:03 17° WNW
STARLINK-1293 3.1 00:51:22 52° SSE 00:51:42 56° SE 00:54:44 10° NE
OAO 1 4.5 00:48:30 20° W 00:52:16 61° SSW 00:57:41 10° ESE
STARLINK-1317 3.2 00:51:59 50° SSW 00:52:43 67° SE 00:56:11 10° NE
STARLINK-1255 3.0 00:53:03 53° S 00:53:27 59° SE 00:56:31 10° NE
Cosmos 1697 Rocket 4.2 00:51:50 19° W 00:53:43 22° WNW 00:58:01 10° N
STARLINK-1204 3.7 00:50:57 10° NW 00:55:05 78° NE 00:59:13 10° SE
STARLINK-28 3.4 00:57:45 41° W 00:58:20 47° NW 01:01:27 10° NNE
STARLINK-1238 3.6 00:55:56 10° NW 01:00:05 87° NE 01:04:13 10° SE
Cosmos 2227 Rocket 3.1 00:55:28 10° NW 01:00:07 27° WSW 01:00:57 26° WSW
IRIDIUM 104 4.2 00:57:28 21° S 01:01:00 73° W 01:06:14 10° N
IDEFIX/ARIANE 42P 2.5 00:55:59 10° NNE 01:01:16 86° WNW 01:05:06 19° SSW
SL-16 R/B 2.6 00:58:18 16° S 01:02:50 61° ESE 01:08:25 10° NNE
STARLINK-1291 2.9 01:02:44 42° SW 01:03:43 84° SE 01:07:04 10° NE
STARLINK-41 3.1 01:03:22 42° W 01:04:08 59° NW 01:07:14 10° NE
STARLINK-1201 3.5 01:00:55 10° NW 01:05:03 83° SW 01:09:11 10° SE
STARLINK-1264 2.9 01:04:26 41° SW 01:05:28 87° SE 01:08:47 10° NE
Helios 1B 4.5 01:02:07 10° SSE 01:06:26 86° WSW 01:10:47 10° NNW
STARLINK-1267 2.9 01:06:06 39° SW 01:07:12 88° NW 01:10:31 10° NE
SL-08 R/B 3.8 01:05:21 25° SSW 01:07:22 37° W 01:11:41 10° NNW
Cosmos 1842 Rocket 3.5 01:03:15 10° NNW 01:07:42 67° W 01:11:31 14° S
Cosmos 1869 3.2 01:04:46 10° N 01:08:39 84° E 01:12:30 10° S
STARLINK-1272 2.9 01:07:43 37° SW 01:08:54 85° NW 01:12:13 10° NE
STARLINK-1206 3.5 01:05:53 10° NW 01:10:01 74° SW 01:14:08 10° SE
IRIDIUM 114 4.4 01:06:37 20° SSW 01:10:10 58° W 01:15:19 10° N
STARLINK-1207 2.9 01:09:22 35° SW 01:10:36 81° NW 01:13:55 10° NE
Cosmos 2285 Rocket 4.4 01:04:50 10° NNW 01:10:42 40° W 01:16:28 10° SSW
Cosmos 1400 Rocket 3.7 01:07:34 10° NNW 01:11:11 30° W 01:12:21 26° WSW
STARLINK-1266 3.0 01:11:04 34° SW 01:12:23 76° NW 01:15:42 10° NE
CZ-4C R/B 4.1 01:10:55 10° WNW 01:13:36 14° NW 01:16:28 10° N
STARLINK-1284 3.0 01:12:47 32° WSW 01:14:10 72° NW 01:17:29 10° NE
STARLINK-80 3.5 01:12:44 28° WSW 01:14:34 63° NW 01:18:20 10° NE
STARLINK-1205 3.5 01:10:53 10° NW 01:14:59 66° SW 01:19:04 10° SSE
Skynet4D Del rocket 4.0 01:12:00 22° WSW 01:15:16 44° S 01:20:21 10° ESE
STARLINK-33 3.9 01:14:31 24° W 01:15:48 35° NW 01:18:47 10° NNE
STARLINK-1258 3.1 01:14:26 30° WSW 01:15:53 69° NW 01:19:12 10° NE
COBE Rocket 4.3 01:12:28 17° SSW 01:15:58 43° W 01:20:46 10° NNW
USA 234 3.3 01:10:29 10° NE 01:17:02 81° NW 01:22:16 17° SW
STARLINK-1292 3.1 01:16:08 29° WSW 01:17:38 65° NW 01:20:57 10° NE
Landsat 5 3.6 01:13:24 10° S 01:17:52 80° WSW 01:22:24 10° NNW
Cosmos 1408 2.9 01:15:16 11° S 01:18:50 68° E 01:22:32 10° NNE
STARLINK-1274 3.2 01:17:55 27° WSW 01:19:31 62° NW 01:22:49 10° NE
STARLINK-1218 3.6 01:15:52 10° NW 01:19:55 58° SW 01:23:59 10° SSE
Cosmos 1076 Rocket 3.6 01:17:18 18° SSW 01:20:28 61° W 01:24:48 10° N
Uosat 12 SS-18 rocket 4.1 01:16:46 10° NNW 01:21:09 90° ESE 01:26:02 10° SSE
STARLINK-1289 3.2 01:19:33 26° WSW 01:21:11 59° NW 01:24:29 10° NE
STARLINK-1303 3.3 01:21:22 24° WSW 01:23:05 56° NW 01:26:23 10° NE
STARLINK-1283 3.9 01:21:02 22° WSW 01:23:10 47° NW 01:26:50 10° NNE
STARLINK-66 4.3 01:22:48 18° W 01:24:27 28° NW 01:27:16 10° NNE
STARLINK-1254 3.7 01:20:52 10° NW 01:24:53 51° SW 01:28:54 10° SSE
STARLINK-1312 3.4 01:23:08 23° WSW 01:24:57 53° NW 01:28:14 10° NE
Cosmos 1241 Rocket 4.4 01:21:21 16° SSW 01:26:22 74° WNW 01:32:35 10° NNE
CZ-2C R/B 3.4 01:23:10 10° N 01:26:35 36° WNW 01:28:48 18° SW
SL-24 DEB 4.5 01:24:31 10° N 01:28:58 48° W 01:33:05 12° SSW
STARLINK-1231 3.8 01:25:54 10° WNW 01:29:51 45° SW 01:33:48 10° SSE
NOSS 2-1 (C) 3.2 01:29:42 19° SW 01:32:01 52° WNW 01:35:21 10° NNE
Nadezhda 3 Rocket 4.2 01:26:06 10° NNW 01:32:09 51° W 01:38:13 10° SSW
Cosmos 372 Rocket 4.3 01:27:42 10° NNW 01:32:33 44° WSW 01:37:25 10° S
Cosmos 1315 Rocket 3.0 01:30:02 10° NNW 01:33:48 48° W 01:37:34 10° S
STARLINK-1232 4.0 01:30:56 10° WNW 01:34:49 40° SW 01:38:41 10° SSE
Okean 3 Rocket 4.3 01:30:36 10° S 01:35:00 57° E 01:39:27 10° NNE
NOSS 2-1 (D) 3.4 01:34:05 17° SW 01:36:30 45° WNW 01:39:46 10° NNE
Cosmos 2366 rocket 4.2 01:30:35 10° S 01:36:42 75° E 01:42:56 10° N
ERS-2 3.6 01:36:54 15° SW 01:38:13 18° W 01:40:50 10° NW
Cosmos 2360 Rocket 3.0 01:33:49 10° S 01:39:12 50° ESE 01:44:37 10° NNE
STARLINK-1208 4.1 01:35:59 10° WNW 01:39:47 36° SW 01:43:34 10° SSE
Cosmos 2341 Rocket 4.2 01:33:58 10° SSW 01:40:12 57° W 01:46:29 10° N
MSX 4.1 01:37:55 10° N 01:43:29 52° WNW 01:49:01 10° SSW
STARLINK-58 3.5 01:41:38 14° WSW 01:44:05 45° NW 01:47:09 10° NNE
STARLINK-1271 4.3 01:41:01 10° WNW 01:44:43 32° SW 01:48:24 10° S
STARLINK-1277 4.4 01:40:57 10° SSW 01:44:53 45° SE 01:48:51 10° ENE
STARLINK-22 4.4 01:42:53 12° W 01:45:22 26° NW 01:48:08 10° NNE
CZ-4C R/B 4.2 01:43:24 10° SSW 01:46:19 24° W 01:49:17 10° NW
Cosmos 1825 2.1 01:43:02 10° S 01:46:46 76° W 01:50:32 10° N
Cosmos 1980 Rocket 4.1 01:44:15 10° W 01:47:15 14° NW 01:50:15 10° NNW
Cosmos 2221 3.6 01:44:27 10° NNW 01:48:04 26° W 01:51:40 10° SSW
PAYLOAD A 3.8 01:44:19 10° N 01:49:00 72° WNW 01:53:44 10° SSW
STARLINK-1154 4.5 01:46:06 10° WNW 01:49:40 28° SW 01:53:14 10° S
STARLINK-1276 4.2 01:45:52 10° SSW 01:49:52 51° SE 01:53:54 10° NE
STARLINK-1278 3.9 01:46:49 10° SW 01:51:01 68° SE 01:55:15 10° NE
BREEZE M DEB (TANK) 4.4 01:47:54 10° WNW 01:52:03 63° SW 02:07:52 10° SE
PSLV R/B 3.8 01:48:10 10° N 01:52:13 49° WNW 01:56:15 10° SSW
STARLINK-1280 3.9 01:48:40 10° SW 01:52:52 71° SE 01:57:07 10° NE
Cosmos 2151 3.0 01:48:47 10° SSW 01:52:59 65° W 01:57:13 10° N
STARLINK-1305 4.1 01:50:47 10° SSW 01:54:49 58° SE 01:58:54 10° NE
Cosmos 773 Rocket 4.3 01:52:38 10° S 01:57:48 72° ESE 02:03:02 10° NNE
STARLINK-48 3.8 01:54:00 10° WSW 01:57:48 55° NW 02:01:38 10° NE
ATLAS CENTAUR R/B 4.4 01:53:03 10° WNW 01:58:06 30° SW 02:09:02 10° S
STARLINK-1262 3.9 01:55:43 10° SSW 01:59:48 66° SE 02:03:54 10° NE
Cosmos 2219 Rocket 4.3 01:59:21 10° SSE 02:03:51 25° ESE 02:08:20 10° NE
STARLINK-1300 3.8 02:00:39 10° SW 02:04:45 74° SE 02:08:53 10° NE
Cosmos 1766 Rocket 3.5 02:01:42 10° SSW 02:06:03 71° W 02:10:24 10° N
